Skip Page Navigation
NASA JPL Caltech
NASA Logo - Jet Propulsion Laboratory + View the NASA Portal
+ Center for Near-Earth Object Studies
JPL Home Earth Solar System Stars & Galaxies Technology
JPL Solar System Dynamics
BODIES ORBITS EPHEMERIDES TOOLS PHYSICAL DATA DISCOVERY FAQ SITE MAP
JPL Small-Body Database Browser
Search: [ help ]  
312095 (2007 TM114)
Classification: Main-belt Asteroid          SPK-ID: 2312095
Ephemeris | Orbit Diagram | Orbital Elements | Mission Design | Physical Parameters | Discovery Circumstances | Close-Approach Data ]

[ show orbit diagram ]
Orbital Elements at Epoch 2459000.5 (2020-May-31.0) TDB
Reference: JPL 8 (heliocentric ecliptic J2000)
 Element Value Uncertainty (1-sigma)   Units 
e .2005100152110193 6.9542e-08  
a 2.415087760078124 1.5658e-08 au
q 1.930838476568913 1.7452e-07 au
i 1.910670477021514 8.535e-06 deg
node 295.5008201823158 0.00014713 deg
peri 70.82910491357198 0.0001501 deg
M 144.8363024736048 2.7013e-05 deg
tp 2458448.965440742087
(2018-Nov-26.46544074)
9.9561e-05 TDB
period 1370.874828629604
3.75
1.3332e-05
3.65e-08
d
yr
n .2626060326455 2.5538e-09 deg/d
Q 2.899337043587336 1.8797e-08 au
  Orbit Determination Parameters
   # obs. used (total)      184  
   data-arc span      5997 days (16.42 yr)  
   first obs. used      2003-09-01  
   last obs. used      2020-02-01  
   planetary ephem.      DE431  
   SB-pert. ephem.      SB431-N16  
   condition code      0  
   norm. resid. RMS      .63469  
   source      ORB  
   producer      Otto Matic  
   solution date      2020-Feb-25 18:43:45  

Additional Information
 Earth MOID = .930331 au 
 Jupiter MOID = 2.56921 au 
 T_jup = 3.489 
[ show covariance matrix ]

Ephemeris | Orbit Diagram | Orbital Elements | Mission Design | Physical Parameters | Discovery Circumstances | Close-Approach Data ]

Physical Parameter Table
Parameter Symbol Value Units Sigma Reference Notes
absolute magnitude H 17.3   n/a MPO455300  

312095 (2007 TM114)          Discovered 2007-Oct-08 by CSS at Catalina
Reference: 20120109/Numbers.arcLast Updated: 2012-01-11

[ show close-approach data ]
Ephemeris | Orbit Diagram | Orbital Elements | Mission Design | Physical Parameters | Discovery Circumstances | Close-Approach Data ]
ABOUT SSD CREDITS/AWARDS PRIVACY/COPYRIGHT GLOSSARY LINKS
FirstGov 2020-Sep-19 00:28 UT
(server date/time)  
NASA Home Page
Site Manager:   Ryan S. Park
Webmaster  Alan B. Chamberlin